Theta_e
344 342 340 340 341 342 342 342 342 344 344 343 342 341 341 339 339 338 339 341 341 340 341 340 340 339 342 340 339 341 342 344 344 345 345 346 348 348 348 349 349 349 348 347 346 345 344 343 343 341 340 340 339 338 338 338 337 337 334 336 334 334 334 336 336 338 333 330 333 333 334 333 331 330 330 329 330 329 329 327 326 326 326 324 323
342 339 338 340 340 340 341 341 342 342 343 342 341 340 341 341 339 339 339 340 340 341 341 342 342 339 339 339 339 340 341 341 341 344 346 347 348 347 347 347 348 348 347 347 346 344 343 341 341 339 338 339 337 338 336 336 336 336 335 332 334 332 333 334 334 333 327 324 324 324 329 331 331 329 328 327 328 328 329 329 328 326 324 324 323
338 337 338 337 339 339 339 340 342 343 343 341 342 341 340 339 339 339 339 339 339 341 342 341 342 343 341 340 340 341 344 345 343 344 346 346 347 347 346 347 347 347 346 345 344 344 342 342 340 338 339 337 336 335 336 335 335 334 333 332 330 333 332 333 333 331 325 329 328 328 321 322 326 327 328 328 327 327 327 328 325 324 323 323 321
336 334 334 335 337 337 338 338 340 341 342 341 341 339 339 338 339 339 340 340 340 341 342 344 344 344 344 343 344 343 341 343 344 345 345 345 344 346 346 346 346 344 344 343 344 343 342 339 338 337 337 338 336 333 333 332 334 333 333 332 332 328 327 329 331 332 329 327 319 318 317 320 320 319 320 326 327 325 326 325 326 324 324 321 318
337 336 335 334 334 335 336 338 340 340 341 340 340 338 339 340 340 341 340 340 340 341 342 342 342 342 341 342 343 342 342 340 341 340 342 342 342 343 345 344 344 343 343 342 341 341 340 339 337 337 336 337 335 333 332 332 331 332 332 332 332 330 327 329 330 331 330 329 323 322 321 318 314 317 321 323 326 324 324 325 325 324 322 320 316
337 337 336 335 333 334 336 338 338 339 340 341 341 340 341 340 342 342 340 340 340 341 342 340 338 338 337 336 335 336 335 335 335 336 338 339 339 343 345 343 342 342 341 340 340 339 339 338 338 335 337 334 333 332 332 331 332 333 332 333 331 332 330 326 326 329 329 328 328 326 323 318 316 319 319 313 324 325 324 324 323 324 322 320 316
337 338 337 335 333 333 335 336 338 339 340 342 342 342 342 341 342 341 340 340 342 341 340 339 337 338 338 338 337 337 334 336 339 341 340 339 340 341 343 343 342 341 341 340 339 338 338 337 337 336 334 333 332 332 331 331 332 332 333 331 329 330 330 324 325 326 326 326 327 326 324 323 323 318 313 317 314 317 323 320 321 321 322 318 315
335 335 335 335 334 333 333 336 338 339 341 341 342 343 342 341 342 341 341 340 343 342 337 337 337 338 339 341 339 338 337 338 338 339 341 340 338 339 341 340 340 340 340 338 338 337 337 336 336 335 333 333 331 330 330 332 333 333 332 332 331 330 329 325 323 323 322 322 325 324 323 322 322 321 320 316 314 312 316 318 321 321 321 315 314
335 334 334 334 334 333 334 335 338 340 340 340 340 342 341 339 336 338 340 340 342 342 340 340 342 342 340 340 339 340 341 339 339 338 338 339 339 339 339 339 339 339 338 337 337 336 335 335 334 333 332 332 331 331 332 332 331 331 331 329 329 327 327 327 324 321 322 321 324 322 322 320 320 320 320 320 313 313 312 313 314 318 321 314 313
335 334 334 335 335 334 335 337 338 339 341 342 341 339 331 332 333 335 338 341 340 341 341 340 339 338 340 342 340 338 338 338 338 336 336 338 337 337 337 337 337 336 338 337 336 335 334 334 333 332 332 331 330 331 331 330 329 329 329 329 328 326 326 325 324 323 323 323 322 321 319 320 320 318 317 316 317 315 311 311 312 313 311 310 312
334 333 333 334 336 335 335 335 336 339 341 342 341 335 331 331 334 333 335 340 339 339 340 338 339 339 338 340 340 337 337 337 335 335 335 337 335 335 335 336 336 335 335 336 335 334 334 334 332 331 332 331 331 331 329 328 328 328 327 327 327 326 324 324 324 324 322 321 320 318 316 316 315 314 314 314 314 312 311 309 310 314 306 306 310
333 332 332 333 334 334 334 334 335 338 339 339 337 330 331 331 335 335 336 337 338 338 338 336 338 338 337 338 340 337 335 335 335 334 335 335 335 335 335 335 335 334 333 333 334 333 333 331 331 331 330 330 330 329 329 328 327 327 326 325 324 325 324 323 323 322 321 319 319 319 317 317 316 315 315 314 312 312 311 309 307 312 308 305 309
332 331 331 332 332 332 332 333 335 337 336 337 333 331 332 332 333 332 333 336 338 338 336 335 338 337 334 334 336 337 337 336 336 335 336 335 335 335 334 333 333 332 332 332 332 332 331 331 331 330 329 329 328 327 327 326 325 324 323 322 322 321 321 322 319 320 319 318 317 317 317 316 314 315 313 312 312 312 310 309 308 309 307 306 309
331 331 331 332 332 333 334 334 334 335 336 336 333 333 334 335 336 334 333 336 335 336 335 335 336 336 336 336 336 336 337 338 339 337 336 336 336 334 333 333 332 333 332 331 331 331 331 331 330 329 329 328 327 326 326 324 324 322 321 321 320 321 321 320 320 319 319 318 318 314 314 312 312 313 313 312 311 310 308 310 311 308 309 306 307
330 331 330 331 333 333 333 334 335 335 336 335 332 332 334 335 335 333 332 335 334 334 334 334 334 335 337 336 337 337 338 338 337 336 336 336 336 335 334 333 333 333 331 331 331 331 330 330 330 329 328 326 326 325 324 323 322 320 320 321 320 320 319 318 318 317 316 316 316 313 312 312 311 311 311 311 311 311 310 310 311 310 308 307 305
330 330 331 332 333 333 334 335 336 336 335 334 333 333 333 333 337 335 332 334 335 334 334 334 335 334 334 334 337 338 337 335 336 336 336 337 336 335 333 334 334 333 332 331 330 330 329 328 327 327 326 325 324 323 323 322 321 319 318 319 318 319 318 317 316 316 316 315 314 313 312 310 312 311 311 311 312 312 311 311 310 311 308 305 305
330 330 331 332 333 333 334 335 335 335 334 334 333 333 334 334 336 334 333 335 335 336 336 335 336 334 334 335 336 337 336 336 335 335 337 337 336 335 334 334 334 333 331 330 329 329 328 328 326 325 325 324 323 322 321 320 320 319 318 318 317 317 317 315 315 315 314 313 312 312 310 310 311 312 312 312 312 313 311 310 310 309 311 307 303
331 332 333 333 333 333 333 335 336 335 335 334 332 333 335 337 335 334 333 333 335 336 335 335 335 335 334 335 336 335 335 336 336 336 336 334 334 336 336 333 332 331 330 329 329 328 327 326 325 324 324 323 322 321 320 319 319 317 318 317 316 316 315 315 314 313 313 313 312 312 311 310 312 311 311 313 313 312 310 310 309 310 312 308 306
330 331 332 332 332 332 333 334 334 335 336 335 333 334 336 337 335 335 333 333 334 336 335 336 337 336 335 336 335 335 336 336 336 336 335 334 334 335 335 334 333 331 329 329 328 327 326 325 324 323 323 322 321 320 319 318 317 316 316 315 316 315 314 313 314 313 313 312 312 311 311 310 311 311 311 311 312 312 310 309 308 309 311 312 308
329 330 330 331 332 332 333 333 334 335 335 335 334 335 335 336 336 336 335 335 334 334 335 335 336 336 336 336 336 336 335 334 335 335 334 333 334 334 334 333 331 330 329 328 327 326 325 324 323 322 321 321 320 319 319 317 317 315 315 314 313 313 312 312 312 312 311 311 311 310 311 310 310 309 310 310 309 310 311 309 308 308 309 311 309
329 330 330 330 331 332 334 335 336 336 336 336 333 333 334 336 336 334 332 334 334 335 334 336 336 335 335 335 336 336 335 335 335 335 335 335 335 335 334 333 331 330 329 327 326 326 325 323 322 322 320 320 319 318 318 317 315 314 313 313 312 312 311 311 311 311 311 310 309 308 308 309 310 309 309 309 309 309 309 309 309 307 306 309 309
329 329 329 330 331 333 334 334 336 335 336 335 334 330 328 331 333 332 333 333 334 334 334 335 335 335 335 336 336 337 335 334 333 333 334 334 334 334 333 332 331 329 329 327 326 326 325 323 322 321 320 319 318 316 316 315 313 313 313 313 313 311 311 311 311 310 310 310 309 307 307 308 309 308 309 308 309 307 308 306 306 307 306 307 310
329 329 330 330 332 332 332 333 334 334 335 335 330 328 328 329 331 332 332 334 334 334 335 336 335 335 335 336 337 335 334 334 333 333 334 333 333 333 332 332 331 329 328 327 326 326 324 323 321 321 319 318 317 315 315 314 312 311 311 312 312 312 311 310 310 309 308 309 308 308 308 309 309 308 309 309 310 309 308 307 307 307 307 307 308
330 330 330 330 332 332 332 332 332 333 334 334 330 329 329 331 333 333 333 334 334 334 335 335 335 335 336 336 335 333 333 334 333 333 333 333 333 332 332 331 330 329 327 327 327 325 323 322 321 320 319 317 316 315 314 312 311 311 311 310 311 312 311 310 310 309 309 309 309 308 308 309 309 308 308 308 308 309 308 307 307 307 307 307 308
328 328 329 330 331 330 330 330 331 332 333 334 331 329 330 332 334 334 333 334 333 334 335 335 335 335 336 335 333 333 333 334 333 332 333 333 332 332 331 330 330 328 327 326 325 325 323 322 321 319 318 317 316 314 312 312 311 312 311 311 311 311 311 311 311 310 310 310 310 309 308 308 308 308 308 307 308 308 308 308 307 306 306 307 308
327 328 329 329 330 330 330 330 331 331 332 333 331 332 334 333 334 335 333 333 333 334 335 335 334 333 333 333 333 332 333 333 333 332 332 332 332 331 330 329 328 327 327 326 325 324 323 322 320 319 319 317 316 315 312 311 311 311 312 312 312 312 311 311 311 310 310 311 310 309 309 308 308 307 307 307 308 308 307 307 307 307 307 308 308
327 328 329 330 329 329 330 331 331 332 333 334 333 333 334 333 333 334 334 333 333 332 334 335 334 332 331 332 332 332 333 333 333 332 332 331 331 330 329 327 327 326 326 325 325 324 323 322 321 320 318 317 316 314 313 312 311 311 311 311 311 311 311 312 311 311 311 311 310 310 310 309 308 308 308 307 308 308 308 307 307 308 308 308 307
328 328 328 328 329 331 330 331 332 332 333 334 333 333 333 333 332 333 333 333 332 333 332 333 333 331 331 329 331 332 333 332 333 333 332 331 330 329 328 327 326 325 325 324 324 324 323 322 321 320 319 318 317 315 313 311 311 311 311 311 311 311 311 311 312 312 312 311 311 310 310 310 310 310 310 310 310 308 308 307 308 309 308 308 307
326 328 328 328 328 330 330 332 332 332 332 333 333 333 334 333 332 332 332 332 332 331 331 332 331 330 329 330 331 332 332 331 331 331 331 330 329 327 326 325 325 325 325 325 325 324 323 322 321 320 319 319 317 316 314 312 311 310 311 311 310 311 311 311 311 312 311 311 311 311 311 308 308 307 304 305 304 305 310 308 308 309 308 307 307
325 327 328 329 329 330 331 332 332 333 333 332 332 333 333 332 331 332 331 332 331 330 331 331 330 330 330 330 331 332 331 331 331 330 329 328 326 325 324 323 323 324 324 324 325 324 323 321 320 319 319 319 317 317 313 306 306 311 311 310 311 311 310 311 311 311 311 311 311 311 309 308 307 305 302 298 297 297 300 305 306 308 309 308 306
326 327 328 329 329 330 331 331 332 333 333 333 333 333 333 332 331 331 331 331 331 330 331 331 330 330 330 330 330 330 329 329 329 329 327 325 323 323 322 322 321 321 322 323 324 323 322 322 320 319 319 319 318 315 300 299 299 302 310 312 311 311 311 311 311 311 311 311 310 308 309 308 307 304 303 296 296 295 295 295 295 297 299 305 308
326 327 329 329 329 329 330 330 332 333 334 333 333 333 332 330 330 330 330 331 330 330 330 330 330 330 330 329 329 328 329 328 327 325 324 322 322 322 321 321 320 320 321 323 323 322 322 322 321 320 319 319 318 304 296 297 298 299 304 311 312 311 311 311 311 310 310 311 310 310 309 310 309 307 306 304 301 296 294 294 294 295 294 294 294
327 327 327 329 329 330 331 331 333 333 333 335 335 334 333 332 331 331 331 331 329 329 330 329 329 329 330 329 328 328 328 327 325 323 322 321 320 320 320 319 319 320 321 321 322 322 322 322 321 319 319 318 317 297 296 296 297 298 299 307 312 312 311 311 311 311 310 310 311 311 311 311 308 306 306 306 305 304 298 296 296 296 296 296 294
328 329 329 330 330 330 331 332 333 334 334 334 334 333 333 333 333 334 333 332 330 329 330 328 327 329 329 329 327 325 324 324 323 321 320 319 319 319 320 320 320 319 319 321 323 322 322 321 321 320 319 318 315 297 295 295 296 296 297 300 313 312 312 311 311 311 311 311 311 311 310 309 309 309 310 308 307 306 305 307 308 308 307 304 295
328 328 329 330 331 332 332 332 333 333 334 334 333 333 334 333 333 332 333 332 331 329 329 328 328 328 327 326 324 324 322 320 319 318 318 319 319 320 320 319 319 318 318 320 322 322 322 322 321 320 319 318 313 294 294 294 294 294 295 297 313 312 312 312 311 311 311 311 311 311 311 310 309 310 311 309 309 308 309 308 307 307 308 307 308
329 329 329 330 331 331 332 333 333 334 333 333 332 331 330 331 332 333 334 333 331 330 329 328 328 327 326 324 323 323 321 318 315 315 316 318 319 320 319 319 318 318 318 320 321 322 321 321 320 320 319 317 310 293 293 293 293 294 293 309 312 312 312 311 311 311 311 311 311 311 311 310 310 310 306 298 302 314 308 307 306 307 307 307 304
332 331 331 332 332 333 334 333 334 333 334 334 333 331 329 328 329 330 330 330 330 329 327 327 326 326 325 324 323 320 319 317 316 315 315 318 319 318 319 318 317 317 316 317 318 320 320 320 319 319 318 316 308 296 292 293 293 292 298 309 311 310 311 310 310 310 310 310 311 310 311 310 309 310 302 295 295 298 309 306 306 307 307 307 306
332 331 332 332 332 333 334 334 334 334 333 333 334 334 332 330 330 331 329 330 329 327 326 326 326 327 323 320 319 318 316 314 315 315 317 318 319 319 318 317 317 316 315 316 317 317 319 319 319 318 318 315 310 299 292 292 292 292 300 309 310 309 310 310 310 310 310 310 310 305 309 310 309 311 295 294 294 302 309 307 307 307 306 306 305
332 331 331 332 332 333 332 332 333 333 334 334 333 333 331 329 329 329 329 327 328 328 327 325 324 324 321 320 319 317 316 315 315 317 318 318 317 315 315 316 317 316 315 315 315 316 316 316 317 318 311 313 311 300 292 292 292 292 301 310 308 309 308 309 309 308 310 310 310 306 301 303 308 307 291 293 293 300 309 307 307 307 304 304 305
331 332 332 332 333 332 332 333 332 332 333 333 333 332 330 328 325 325 325 325 326 327 327 326 325 322 320 320 319 316 316 316 316 316 316 317 315 313 313 314 314 314 313 312 312 314 313 314 315 315 312 313 310 305 298 291 292 293 294 309 309 308 307 308 308 307 307 309 309 308 302 291 291 291 291 292 292 292 308 309 307 307 305 303 306
330 330 325 331 331 332 331 331 332 332 333 333 332 331 329 328 328 326 324 326 327 327 326 326 325 322 322 321 319 317 315 316 316 317 316 314 313 313 312 312 311 311 310 310 311 311 311 312 312 312 311 312 310 307 300 291 292 293 293 296 309 308 308 307 307 306 306 307 307 306 307 293 290 291 291 290 292 291 293 307 308 308 308 305 301
329 325 328 331 331 331 331 332 333 332 333 333 332 330 329 328 326 324 325 327 327 326 326 326 324 322 323 322 319 318 316 316 315 312 311 311 312 313 312 312 311 310 309 308 309 308 308 308 309 309 310 310 308 304 303 292 292 292 293 293 305 309 307 307 305 305 305 306 306 306 308 296 289 290 290 290 291 292 290 305 314 292 289 292 304
328 329 329 329 329 329 330 331 332 333 333 332 331 329 329 328 327 327 327 326 326 327 326 325 322 320 319 319 317 315 313 314 312 311 311 310 310 310 310 310 310 309 309 307 305 306 306 306 306 306 307 307 306 303 297 298 292 292 292 293 291 299 296 309 306 305 305 305 307 308 303 291 290 289 290 290 291 290 292 302 288 290 293 289 295
328 328 328 329 329 329 329 329 330 331 332 332 330 326 317 320 321 323 324 323 323 324 324 322 319 317 317 316 315 313 312 312 310 309 309 308 308 307 306 307 307 307 305 305 305 306 305 304 303 303 304 304 305 302 296 295 295 290 292 291 292 293 297 305 307 306 306 305 306 307 301 289 290 289 289 290 290 291 299 289 290 290 289 291 303
326 326 327 327 327 327 326 326 327 329 331 331 331 324 314 317 320 323 323 323 322 321 321 319 318 317 315 313 312 312 309 308 308 309 307 306 306 306 306 307 307 306 306 305 304 303 303 303 302 301 302 302 302 304 300 296 292 291 290 290 291 291 293 292 305 306 306 307 297 290 288 289 289 289 289 289 290 290 287 289 289 288 294 302 303
326 326 327 325 326 324 323 322 324 327 329 328 329 325 319 321 321 323 324 324 322 320 318 317 316 315 314 312 311 309 309 307 307 308 308 307 305 306 307 307 307 306 305 303 302 302 302 302 302 301 301 302 302 301 300 299 295 294 293 290 290 290 293 292 296 302 291 289 290 290 288 288 289 291 298 300 302 302 290 290 289 291 303 302 304
324 324 323 325 324 322 321 320 320 324 326 326 326 326 326 324 322 322 322 322 321 319 317 316 314 312 312 312 309 308 308 308 307 308 308 307 307 308 307 305 304 302 303 303 303 302 303 302 303 303 302 300 300 301 300 300 299 298 299 298 297 298 294 293 299 303 298 299 296 297 297 294 294 291 293 295 297 293 296 297 300 300 301 304 302
324 325 325 325 324 322 320 319 318 319 321 322 322 322 323 323 322 320 320 319 318 317 316 315 313 312 311 311 308 298 304 307 307 306 307 307 306 307 306 305 304 304 303 303 303 302 301 301 299 300 299 301 299 300 300 300 299 299 300 300 301 301 301 301 300 303 302 302 301 294 295 300 300 299 298 300 300 301 300 299 301 301 302 302 300
323 325 324 325 324 323 322 320 318 318 318 318 319 320 322 322 323 322 320 318 316 313 315 315 313 312 310 308 307 306 307 307 307 306 306 306 305 305 305 305 308 307 307 305 303 302 301 302 302 302 300 299 298 298 301 297 301 295 299 301 301 301 301 301 299 296 302 303 301 299 300 299 299 295 297 300 301 301 302 302 303 303 303 302 301
324 325 325 325 325 323 320 316 315 317 317 317 318 319 321 322 322 322 321 317 314 314 315 313 312 311 309 307 306 306 306 306 307 307 306 304 291 292 301 307 306 294 293 296 298 303 302 302 302 303 302 298 298 301 295 294 294 294 294 294 295 295 295 300 296 293 299 302 300 299 299 298 300 299 298 298 299 300 299 299 301 296 300 302 301
323 322 322 322 323 322 319 316 315 316 315 315 315 316 318 320 321 321 321 317 314 313 314 313 311 310 306 306 306 306 306 307 308 308 307 305 305 302 290 291 294 294 293 292 294 293 295 297 302 303 301 292 294 293 292 293 293 293 293 292 293 293 292 291 292 301 298 297 298 297 299 299 298 299 298 298 298 298 297 298 300 299 298 295 296
Wind_Speed
8 10 10 11 12 11 9 10 11 12 12 12 12 12 12 11 11 12 11 12 10 10 10 10 10 9 9 9 8 7 7 7 5 4 5 4 4 4 4 3 3 4 3 3 3 2 2 3 2 3 3 3 3 4 5 5 5 4 4 2 4 5 4 5 5 5 3 2 2 3 4 3 4 4 6 5 5 4 5 6 6 7 8 8 8
9 9 10 11 11 12 11 10 11 13 12 12 13 12 13 12 12 12 11 12 12 11 10 9 9 9 9 9 8 8 8 7 6 6 5 4 4 4 4 4 4 3 3 3 3 2 2 2 3 3 3 4 4 4 4 4 5 5 4 4 2 4 4 6 6 8 2 3 2 4 5 2 3 3 4 7 5 5 5 6 6 7 8 8 7
9 10 10 10 12 13 12 10 10 11 11 13 14 14 13 13 12 13 13 13 13 13 11 10 9 8 8 8 8 8 7 6 7 6 5 4 4 4 4 4 5 4 3 3 2 2 2 2 3 3 4 3 3 3 4 4 4 4 5 5 4 2 2 5 7 8 5 4 2 6 3 5 4 5 5 6 5 6 5 5 5 6 8 8 7
11 12 12 11 12 12 13 12 11 11 11 12 13 14 12 13 13 14 13 13 12 13 10 10 10 8 7 8 8 8 7 6 6 6 5 5 5 4 4 4 4 4 4 3 2 2 3 3 3 3 3 3 3 3 3 4 4 4 4 4 5 3 3 5 7 8 7 8 2 4 2 4 5 3 4 5 6 7 5 6 5 6 8 7 7
10 12 12 12 13 14 15 14 12 12 12 12 13 14 12 15 15 15 13 13 11 11 11 10 10 9 8 9 8 8 6 6 7 7 6 5 5 5 5 4 4 3 3 2 3 3 2 3 3 3 4 4 3 3 4 4 5 4 5 4 5 5 3 3 5 6 8 8 7 3 2 1 4 5 6 4 1 3 5 5 5 6 7 7 7
10 11 12 13 12 13 13 14 14 14 13 12 13 14 15 14 14 13 11 12 12 13 12 10 9 10 11 9 9 8 9 8 9 8 7 7 6 5 5 4 4 4 3 2 3 3 3 3 3 3 4 4 4 4 4 3 4 4 4 4 3 4 4 3 3 5 6 8 8 7 7 6 6 6 6 3 4 4 3 4 6 6 7 7 7
9 9 11 13 13 13 15 15 15 14 13 10 13 14 15 14 14 14 12 12 12 13 13 9 11 10 11 11 10 9 8 7 7 7 7 6 6 6 6 5 5 4 3 3 3 3 3 3 4 4 4 4 4 4 4 4 4 4 4 4 4 4 3 4 4 3 4 6 5 7 7 6 6 6 5 4 1 2 4 4 6 6 7 8 8
10 11 12 12 13 14 16 15 14 14 11 11 12 12 14 14 14 12 10 11 11 13 13 11 10 9 11 11 10 8 8 8 8 7 7 6 6 7 7 5 5 4 3 3 3 3 4 4 4 4 4 4 4 4 4 4 3 4 4 4 4 4 5 4 4 5 4 4 4 4 4 4 4 4 5 5 4 4 2 4 4 5 6 7 7
11 11 13 13 14 15 14 15 15 14 13 14 13 12 10 13 10 9 10 11 11 15 11 10 8 8 10 10 10 7 7 7 6 7 7 8 9 7 7 6 5 4 4 4 3 4 4 4 4 4 4 4 4 5 4 4 5 5 4 4 5 5 5 4 4 5 5 5 3 3 2 2 2 3 3 3 4 4 2 4 5 3 4 6 6
10 11 11 12 12 14 15 14 14 13 12 12 13 9 13 8 9 6 8 8 9 14 12 11 10 7 6 8 10 9 6 6 8 9 8 8 9 9 7 7 6 5 5 4 4 4 4 5 5 5 5 5 5 5 4 5 5 5 5 5 5 5 5 5 5 4 5 5 5 4 3 1 1 1 3 3 1 2 3 4 4 4 4 5 5
10 11 12 12 13 13 14 15 15 13 10 9 11 12 14 12 12 12 9 7 9 11 11 10 9 8 7 9 10 9 9 8 8 10 9 10 10 9 8 7 6 6 5 5 5 5 5 5 5 5 5 4 4 4 4 5 4 4 5 6 5 5 5 5 6 6 5 6 6 5 4 4 4 3 4 3 3 3 3 3 3 3 5 4 5
12 12 12 12 12 13 14 15 15 14 12 10 10 12 11 15 16 16 13 11 9 11 10 9 6 6 5 5 7 9 11 9 11 12 10 11 10 9 8 8 7 7 6 5 5 5 6 5 5 5 5 5 4 4 4 4 4 3 4 4 5 5 5 5 6 6 6 5 5 4 4 4 4 4 4 4 4 4 3 3 4 1 3 5 5
13 12 12 12 13 14 16 16 14 12 12 13 15 15 15 17 17 18 15 12 8 11 11 10 10 8 7 6 7 6 10 11 11 11 11 10 9 9 8 8 8 7 6 6 6 7 6 6 5 5 5 5 5 5 5 5 4 4 5 6 6 6 6 6 7 7 7 5 4 4 4 4 4 4 4 4 4 3 4 3 4 3 2 4 4
13 13 13 13 13 14 15 14 13 11 12 12 13 15 16 17 16 16 15 13 14 11 10 10 10 8 7 7 8 8 10 10 9 10 10 9 9 9 8 8 8 7 7 7 7 7 6 6 5 6 6 6 6 6 6 5 4 4 5 6 6 6 6 7 8 7 6 6 4 5 5 5 5 4 4 4 5 5 5 4 3 3 3 4 5
13 13 14 14 14 14 13 12 11 12 13 13 13 15 16 15 16 19 18 14 12 12 12 14 10 11 6 7 8 7 6 4 8 8 9 9 8 9 8 8 8 7 7 7 8 8 7 7 6 6 6 6 6 6 6 5 4 5 5 6 6 6 7 7 7 7 7 7 6 5 5 5 5 5 5 5 5 6 6 5 5 2 4 4 5
14 14 14 14 13 13 12 12 12 12 13 14 16 16 14 16 18 21 18 14 15 15 15 16 12 11 13 11 10 9 9 9 6 5 8 9 9 9 9 8 7 7 8 8 8 8 8 8 7 7 7 6 6 6 5 5 5 5 6 6 6 4 7 8 7 7 7 6 6 5 5 5 5 5 5 5 5 5 5 5 6 5 5 3 5
14 14 13 14 14 14 14 13 11 12 13 14 16 16 16 18 17 17 17 18 21 19 18 16 14 12 11 10 9 9 9 11 10 11 10 9 8 9 9 8 8 8 8 8 8 8 8 8 8 7 6 6 6 6 6 6 6 5 6 6 6 6 7 7 6 6 6 6 6 6 5 5 5 5 5 5 5 4 5 5 5 6 6 4 4
14 13 13 13 14 14 13 10 12 14 15 16 14 16 18 17 18 17 21 23 19 19 17 17 16 15 15 14 13 12 12 11 10 11 10 11 9 8 8 9 8 8 8 9 9 9 9 8 7 7 6 6 7 6 6 6 6 6 6 6 6 6 7 6 6 6 6 5 5 5 5 6 5 5 6 5 5 4 5 5 6 6 6 6 5
13 13 12 13 13 13 13 12 12 14 16 18 16 16 18 18 19 18 20 20 18 13 15 14 15 12 13 13 13 11 10 10 9 10 10 12 12 10 10 9 9 9 9 10 10 10 9 8 8 7 7 7 7 7 6 6 6 6 6 5 5 6 6 7 6 6 5 5 5 6 6 6 5 6 5 5 5 5 5 5 6 6 6 6 6
12 12 12 12 12 13 14 14 15 15 17 16 16 13 18 19 18 15 15 16 16 16 15 15 15 12 13 12 12 11 12 12 12 12 11 12 12 11 10 10 10 9 10 10 10 10 9 9 8 8 7 7 7 6 6 6 6 6 5 6 6 7 8 7 7 6 5 6 6 6 6 5 5 5 5 5 6 6 6 6 6 6 6 6 5
11 11 11 12 12 13 12 13 13 15 15 15 15 14 16 15 16 16 17 14 16 14 14 14 14 13 13 13 12 12 13 12 13 13 13 13 12 11 10 10 10 10 10 10 10 10 10 9 9 8 8 7 7 7 6 6 6 6 6 7 7 8 8 7 7 7 6 6 7 8 8 7 6 6 5 5 6 6 6 6 6 6 6 6 6
11 11 11 12 13 13 13 12 12 14 15 17 15 9 6 8 11 15 14 15 16 17 14 14 12 11 14 14 14 12 13 12 13 13 11 13 12 11 11 11 10 10 10 10 11 10 9 10 9 9 8 8 8 7 7 6 7 7 7 5 7 8 8 8 7 7 7 5 6 8 8 8 7 7 6 6 6 7 7 7 7 7 7 7 7
12 12 12 12 12 12 13 13 15 15 14 15 15 14 16 15 15 14 16 13 14 15 13 13 12 12 14 13 13 12 13 14 14 13 14 13 13 12 11 11 11 10 10 10 10 10 10 10 9 9 8 8 8 7 7 7 7 7 7 7 7 8 8 8 8 8 7 7 7 7 7 6 5 6 6 6 6 6 6 7 7 6 7 6 6
12 11 11 11 11 12 12 13 13 14 14 15 17 16 12 13 15 15 16 15 13 11 11 13 14 13 12 12 12 13 15 15 15 13 14 14 11 11 10 11 11 10 11 10 10 10 10 10 9 9 9 8 8 7 8 7 8 8 8 9 8 8 7 7 7 8 7 6 7 7 6 6 6 6 6 6 6 6 6 6 6 6 6 6 6
12 12 12 13 13 13 13 13 13 13 13 14 17 17 16 16 15 14 13 14 14 14 13 13 13 13 13 13 14 14 15 15 15 14 15 14 11 11 10 11 11 10 11 11 10 10 10 10 9 9 9 8 8 8 8 8 7 7 8 8 8 8 8 7 7 7 7 6 6 6 6 6 6 6 6 6 6 7 6 6 5 5 5 5 5
13 13 13 14 14 13 13 13 13 13 13 14 15 19 17 16 15 14 14 13 14 14 14 15 13 13 13 14 15 14 15 16 15 14 15 13 11 11 11 9 11 11 11 11 11 9 9 10 10 10 9 9 8 8 8 9 8 8 8 8 8 8 8 8 8 7 7 6 6 6 7 6 6 6 6 6 6 7 6 6 6 6 5 5 5
13 13 12 13 13 14 14 14 13 13 13 13 15 15 16 16 14 13 14 14 11 13 11 12 14 14 13 12 13 13 14 14 14 14 14 12 11 11 11 11 10 11 11 11 11 11 9 10 10 9 9 9 9 8 8 8 9 9 9 9 9 9 8 7 7 8 7 7 7 6 6 6 6 6 6 6 5 6 5 6 5 5 5 4 4
12 13 14 14 13 13 13 13 13 12 13 13 13 14 15 14 14 15 15 13 11 14 14 12 12 13 12 10 8 10 11 12 12 14 14 12 11 11 10 10 10 11 11 11 11 10 10 9 9 9 9 9 8 8 8 9 9 9 9 9 9 9 8 8 8 7 7 7 7 7 6 6 6 6 5 5 5 4 4 5 4 4 5 4 4
13 13 13 14 13 13 13 13 13 13 14 14 13 14 13 13 15 15 15 14 13 14 14 13 12 12 13 14 13 11 11 14 14 14 15 12 11 10 10 10 9 10 9 11 11 11 11 10 10 9 9 8 8 7 7 8 9 9 9 9 9 9 9 9 8 8 7 7 7 7 7 8 10 10 12 10 10 9 5 4 4 4 5 5 4
13 13 13 13 13 13 12 13 13 14 15 15 14 13 14 15 15 15 14 14 13 13 12 12 13 12 12 13 14 13 14 14 16 15 15 12 11 10 10 10 10 10 10 10 11 11 10 10 10 10 9 8 7 6 6 7 8 9 9 8 8 9 9 8 8 8 7 7 7 7 9 13 11 10 9 11 12 13 12 10 7 6 5 4 5
13 13 13 13 13 12 12 13 14 15 15 15 13 13 13 14 14 14 14 14 13 13 12 12 13 12 13 13 13 12 13 15 15 14 11 11 11 10 10 10 10 10 10 11 12 12 11 10 11 10 10 8 7 6 10 6 4 7 9 8 8 8 8 8 8 8 7 7 8 9 9 10 10 9 9 10 10 9 9 9 10 10 10 8 6
13 13 13 13 14 13 14 14 14 14 15 14 14 14 14 14 14 13 13 13 12 13 13 13 12 13 14 15 12 13 13 13 12 12 12 11 11 11 11 10 10 10 10 10 12 12 12 11 10 10 10 8 7 11 11 8 7 6 5 8 8 8 8 8 8 7 7 7 8 8 7 7 6 8 9 8 8 7 7 8 8 8 9 9 8
13 13 14 13 14 14 14 13 13 13 14 14 14 14 15 14 13 14 14 14 13 13 13 13 13 14 14 14 13 14 14 13 12 12 11 10 11 11 11 11 11 10 9 10 12 12 12 11 10 11 10 9 8 12 11 10 9 7 4 6 8 7 7 7 7 7 7 7 7 7 7 5 7 12 8 8 8 7 6 6 9 8 5 5 6
11 12 13 12 11 11 11 13 12 11 13 11 12 12 12 13 15 16 15 14 13 13 13 12 13 14 14 14 14 13 12 12 12 11 10 11 11 11 10 10 9 9 9 10 12 12 11 11 11 10 10 9 9 12 12 11 10 8 7 8 7 8 7 7 7 7 7 7 7 7 7 7 7 8 6 7 7 7 7 6 6 4 4 4 5
12 12 12 11 11 11 11 12 12 12 11 10 8 9 10 12 13 14 14 14 14 14 13 14 14 14 13 13 12 13 13 12 10 10 11 11 11 10 11 10 9 10 10 10 12 12 10 10 10 10 10 9 8 14 12 12 10 9 8 8 6 7 7 7 7 7 7 7 7 6 7 7 8 7 5 4 6 5 4 3 3 3 2 4 4
11 12 12 12 12 11 11 12 10 12 12 12 12 11 12 13 13 14 12 12 13 14 14 14 14 14 14 14 13 12 13 13 11 9 10 11 11 12 12 10 9 9 8 8 9 9 10 10 10 11 10 9 9 15 12 12 10 10 8 7 7 7 7 7 7 7 7 6 6 6 7 7 7 7 7 1 6 1 5 3 3 3 3 4 5
10 11 11 10 10 11 11 10 10 11 13 12 13 13 12 12 13 12 12 13 11 11 11 12 13 14 13 14 14 13 11 13 14 12 11 12 11 11 10 9 10 10 9 9 9 8 9 10 10 10 10 9 10 11 12 12 11 11 9 9 7 8 7 8 8 7 7 6 6 7 6 6 7 6 9 6 4 7 2 3 3 2 2 2 4
10 10 10 10 10 9 11 11 12 12 11 10 11 12 13 13 12 12 12 11 12 13 13 13 13 14 12 12 12 12 11 10 11 13 12 10 10 8 9 10 11 11 10 10 9 8 9 9 10 10 10 9 10 11 12 12 12 12 11 8 8 8 8 7 8 7 7 7 5 6 5 5 7 6 12 10 7 6 4 3 3 3 4 3 4
9 10 11 11 10 10 11 10 11 11 10 11 11 10 9 9 9 8 9 10 11 13 14 15 15 15 10 10 12 13 13 12 12 10 10 10 10 10 9 9 9 9 9 8 8 8 8 7 9 9 9 10 10 11 12 12 12 13 11 7 8 7 8 8 7 8 6 6 6 6 1 5 4 10 13 10 8 8 4 3 2 3 2 2 2
10 10 10 10 10 11 11 11 11 10 10 11 12 11 10 10 9 8 10 10 10 13 13 13 13 13 13 13 11 12 13 14 13 11 10 9 8 8 9 9 8 8 8 8 8 7 8 8 8 8 8 8 10 10 11 12 12 12 13 8 8 7 8 8 7 8 7 6 7 7 5 3 5 9 10 11 8 8 7 2 3 3 2 3 3
11 10 9 9 9 9 10 10 9 10 10 10 10 9 9 10 11 10 11 11 8 6 9 12 13 13 13 12 10 11 13 12 13 11 10 9 8 9 9 9 9 7 7 7 9 8 8 7 7 8 9 8 8 11 11 13 12 12 13 12 6 7 7 7 7 7 7 7 7 7 7 8 6 7 8 8 7 6 6 5 4 1 4 6 4
11 11 9 9 9 9 9 9 9 10 10 9 10 11 10 10 9 10 10 9 12 14 13 12 12 14 14 14 10 8 8 8 7 8 9 8 7 7 8 9 7 8 9 8 8 7 7 7 6 7 7 7 8 10 10 12 11 12 12 13 8 7 6 7 6 7 7 7 6 6 7 8 8 8 7 7 5 5 5 8 3 8 5 2 5
12 11 9 9 9 9 8 8 8 8 8 9 9 10 8 6 7 7 7 8 9 11 13 13 13 14 14 14 9 11 9 8 8 8 9 8 7 7 6 6 7 7 7 7 6 7 7 7 6 6 6 7 8 7 11 11 11 11 11 13 9 9 2 4 7 7 6 6 5 5 8 10 9 8 7 7 6 5 6 3 6 3 4 2 5
11 11 10 9 9 9 8 7 6 6 7 8 10 5 6 7 8 8 8 8 9 9 12 13 13 14 14 13 10 10 8 7 8 8 5 8 8 8 7 6 7 8 7 7 6 6 7 7 7 7 6 7 7 7 9 11 10 10 10 9 5 6 4 4 4 6 5 4 6 5 8 10 9 8 7 7 6 6 1 7 4 4 3 4 6
12 11 10 9 10 10 9 7 5 5 6 7 7 9 7 9 10 10 11 10 10 11 11 11 12 13 13 12 11 8 7 6 7 7 8 7 8 9 8 6 7 7 6 6 6 6 5 6 6 5 6 6 7 7 8 9 11 10 8 7 5 4 4 5 3 5 4 4 11 15 13 10 9 8 8 7 5 3 4 5 4 5 5 7 6
12 12 10 10 10 10 9 7 5 4 5 5 4 9 9 9 9 9 9 9 10 11 10 10 11 11 13 13 12 8 7 7 7 5 5 7 8 8 8 8 6 6 6 7 7 7 7 7 7 8 8 7 7 7 8 8 8 7 7 5 4 4 3 5 7 7 13 13 13 12 10 9 7 6 8 7 7 6 7 6 6 6 7 7 6
12 11 11 11 11 9 9 8 6 4 3 4 5 6 7 7 7 8 8 8 9 10 10 10 11 11 12 12 13 9 8 8 10 8 8 10 9 8 7 7 7 6 7 7 8 8 8 8 7 6 7 7 8 8 8 8 9 8 8 6 6 5 2 3 5 5 8 7 8 7 6 5 3 7 3 3 8 9 7 6 6 7 8 6 5
12 11 11 11 10 9 9 8 6 4 3 4 5 6 7 8 9 9 8 8 8 9 10 11 11 11 11 11 10 11 9 6 7 7 8 6 6 7 8 9 9 9 9 8 8 8 8 8 8 7 7 6 8 8 9 10 10 10 10 10 10 9 8 9 9 7 7 8 7 6 6 5 4 5 6 7 7 7 8 8 8 8 7 5 0
12 11 10 10 11 10 9 9 8 6 4 3 3 5 7 9 9 10 10 10 9 10 9 11 11 10 11 9 10 11 12 9 8 8 6 5 6 7 7 6 5 6 7 8 9 6 6 6 6 7 8 7 7 9 10 9 11 12 9 11 10 10 9 9 8 8 8 8 7 7 7 7 7 5 8 7 8 7 7 7 6 5 6 5 6
10 9 11 11 10 9 9 9 8 7 6 5 4 4 5 6 7 8 9 10 10 10 10 10 10 10 10 10 10 10 9 8 10 9 8 4 10 10 5 3 5 7 9 6 4 5 6 6 6 6 9 11 11 9 10 13 13 13 10 9 9 10 11 7 10 11 8 7 7 7 7 7 7 7 7 6 5 7 7 7 6 6 5 5 5
11 11 10 10 10 9 9 9 9 8 7 6 5 5 6 6 7 8 9 11 11 10 9 9 9 9 10 10 9 9 9 8 8 8 7 7 6 4 9 10 9 7 7 8 7 7 8 9 8 7 9 6 4 12 16 14 13 12 10 8 8 9 8 9 12 8 5 5 5 6 6 7 7 7 6 6 5 5 4 3 5 6 6 4 4
Wind_Direction
160 169 168 183 189 186 185 192 193 192 191 189 187 188 178 176 174 172 176 175 175 182 185 183 179 177 171 173 169 173 177 176 182 195 197 186 178 183 191 185 164 155 148 146 131 121 81 75 45 41 18 53 35 38 33 30 22 12 352 2 360 354 22 350 352 312 305 152 162 146 131 96 80 63 30 43 35 27 29 33 22 19 8 12 8
164 165 167 176 188 187 189 196 196 193 187 184 187 184 182 172 179 171 174 176 181 185 181 181 182 182 176 176 170 175 177 178 176 192 188 170 188 185 185 179 149 156 147 137 130 110 94 76 44 49 37 55 50 48 43 37 25 14 358 342 47 9 16 359 4 324 71 351 307 162 163 167 141 83 49 50 28 39 34 33 23 18 12 2 10
171 164 171 183 185 190 191 199 198 200 183 184 185 184 183 179 180 176 178 179 182 184 182 179 174 167 174 163 170 175 183 182 177 182 172 172 179 186 180 162 149 151 145 135 116 85 71 52 57 61 44 39 54 52 46 38 25 13 6 4 329 62 38 30 16 6 359 332 227 246 150 196 182 179 113 90 67 42 32 39 28 21 17 7 10
178 175 181 189 191 193 195 197 199 196 186 187 183 181 180 183 181 179 177 182 178 178 181 166 166 154 168 163 169 177 170 163 160 168 172 170 175 180 164 157 147 158 146 138 111 88 64 69 81 67 66 49 52 49 41 35 44 13 12 20 327 8 52 50 29 23 12 347 26 353 42 298 171 98 12 115 109 87 45 42 33 22 19 18 12
187 180 180 187 196 199 198 199 196 196 193 187 180 181 182 183 180 179 177 181 176 163 172 164 153 158 164 162 164 160 148 165 170 178 173 169 167 171 158 152 154 154 142 129 103 100 85 75 73 84 70 64 58 63 51 38 8 29 20 29 10 349 51 53 54 32 33 19 2 328 228 146 25 20 315 112 10 63 56 47 48 26 19 25 18
195 186 185 185 198 203 200 196 200 199 195 185 182 181 182 179 175 173 173 171 166 161 160 157 162 169 164 160 164 172 163 174 183 178 170 172 172 153 142 161 157 149 142 117 92 96 98 93 83 91 94 81 65 50 52 47 43 31 26 14 33 21 356 45 67 74 48 40 36 39 20 7 356 343 308 35 128 109 70 52 40 27 24 29 16
190 190 191 187 196 204 204 203 204 202 196 179 185 187 182 176 168 164 168 163 160 159 157 151 161 170 172 175 177 176 165 180 181 174 168 162 154 154 151 167 155 146 122 106 108 102 101 91 90 87 93 96 76 62 58 51 49 35 25 29 21 30 11 52 25 56 91 55 58 57 42 38 21 354 10 309 334 86 82 40 38 18 36 29 15
186 192 196 193 196 206 208 204 204 204 189 180 189 187 175 159 159 156 162 169 165 160 169 168 169 177 186 189 181 178 164 173 172 166 153 147 145 156 161 156 152 132 125 120 116 109 99 100 99 94 93 81 81 70 62 55 68 66 46 40 39 37 31 36 48 30 26 74 52 52 87 81 47 31 3 346 332 323 79 65 64 24 53 41 24
190 189 195 194 198 208 211 209 207 203 192 189 190 184 156 132 124 167 178 173 168 159 164 163 165 185 194 187 176 165 165 158 149 147 158 160 156 168 166 147 135 124 127 126 115 102 111 105 105 107 93 86 77 86 75 73 62 58 55 54 51 50 43 39 47 46 40 33 37 66 54 43 92 62 8 350 356 325 41 9 11 12 92 53 26
194 194 195 195 199 211 214 215 210 206 200 185 184 144 99 82 120 171 178 180 168 158 164 167 180 176 181 191 174 160 147 153 167 156 165 169 164 167 157 154 144 142 137 126 118 112 107 111 109 104 94 74 72 77 89 81 74 71 61 62 65 67 58 53 47 54 55 49 31 18 28 54 73 71 42 6 34 357 329 0 20 357 24 48 26
192 193 196 199 197 210 215 217 212 201 201 179 172 121 115 121 163 171 172 153 157 155 150 165 185 194 181 191 164 146 153 168 170 163 175 173 169 165 166 156 149 145 139 125 120 114 118 113 112 102 93 95 87 92 82 79 84 88 85 78 66 61 71 73 69 58 59 55 42 39 45 33 20 30 13 14 348 10 338 30 45 37 34 50 41
190 193 195 197 197 208 213 215 209 195 184 182 119 104 137 167 168 174 166 165 162 161 160 158 183 183 173 189 163 161 159 175 181 179 179 176 172 168 161 154 149 146 142 133 131 130 121 117 125 118 103 91 89 82 83 86 86 82 82 79 79 75 72 70 65 63 61 69 54 54 53 43 37 24 14 3 0 16 350 9 35 24 81 48 43
189 189 192 194 200 207 212 212 206 191 181 171 127 144 166 166 178 176 161 162 148 156 167 163 176 183 181 170 178 175 181 175 184 189 177 178 173 167 164 156 151 150 147 143 139 142 134 138 132 120 107 95 95 93 87 85 85 85 87 83 75 71 66 64 67 59 51 49 66 58 51 47 42 27 16 12 11 352 1 4 63 31 47 50 64
189 189 190 194 200 207 211 208 201 183 171 156 140 160 164 169 167 161 164 168 163 152 174 170 178 190 185 164 178 191 193 183 184 182 188 181 170 169 169 155 151 149 146 144 145 142 135 126 120 104 98 104 100 93 90 86 91 96 89 86 84 79 79 76 73 70 65 57 51 57 47 49 46 33 26 25 18 13 21 11 329 89 21 78 51
191 192 193 195 201 206 208 203 192 177 168 145 148 156 159 164 164 164 173 172 146 166 179 180 171 178 174 152 175 197 162 210 195 185 184 180 171 167 163 154 148 148 143 137 144 139 133 132 126 120 108 104 104 103 100 100 100 98 91 85 81 79 80 78 76 73 70 65 57 56 61 53 45 37 34 28 31 21 14 359 343 317 129 66 57
192 194 195 196 197 202 203 197 182 167 161 145 149 151 154 164 166 162 164 176 159 176 187 180 176 166 157 181 179 179 175 185 204 178 183 179 165 163 161 152 145 138 137 142 140 141 136 133 130 116 114 111 110 110 112 109 106 101 97 95 94 92 91 91 91 83 76 70 68 67 68 58 47 39 39 37 30 17 13 8 357 2 351 68 67
190 192 192 192 193 197 201 194 175 163 160 146 152 157 163 166 160 149 161 167 173 180 183 177 171 167 169 162 165 183 182 184 176 184 181 171 165 161 160 148 139 140 141 141 142 140 141 135 124 121 116 114 111 109 109 108 107 102 100 99 94 91 87 82 79 80 82 77 74 69 69 67 58 50 42 38 33 20 24 17 19 13 345 12 37
188 189 190 193 194 194 195 184 170 164 162 146 146 163 167 160 152 156 167 173 179 180 179 180 171 169 170 173 176 180 183 188 187 177 171 165 166 166 154 149 145 142 142 145 145 142 138 134 125 123 120 116 115 113 111 111 109 102 102 98 95 98 96 90 82 81 79 79 75 73 73 71 56 54 52 38 31 27 30 33 28 26 13 24 17
183 185 187 191 192 193 189 177 171 167 159 150 157 166 165 158 166 173 175 172 171 173 178 178 175 173 176 174 178 181 178 175 183 171 171 167 167 166 161 149 143 143 146 149 147 144 143 136 132 127 125 123 117 116 120 116 115 112 109 106 104 99 95 93 90 91 90 88 86 83 80 74 68 61 56 50 43 29 35 41 37 36 31 13 21
181 184 189 190 190 189 186 176 173 164 159 151 160 163 167 169 173 177 172 170 166 169 171 174 174 174 172 169 178 177 173 175 178 173 171 173 169 163 159 147 146 146 150 152 149 148 142 139 137 131 129 125 124 123 120 120 119 112 111 106 107 106 102 102 102 94 95 94 90 82 70 69 66 71 63 56 52 46 36 39 37 39 41 17 21
179 182 187 189 188 186 179 175 171 161 158 150 159 162 172 174 173 175 175 170 167 159 166 170 171 171 173 176 184 180 174 175 176 174 173 171 170 162 160 149 149 148 153 154 151 148 143 141 140 137 131 127 125 124 125 125 118 113 106 109 113 111 109 107 108 105 99 94 89 86 80 72 66 65 65 62 53 49 49 44 38 41 43 30 21
179 182 185 188 187 180 174 177 168 165 159 154 151 123 169 190 166 171 175 173 165 162 166 165 167 170 174 180 178 169 173 171 170 173 168 173 168 163 160 151 150 150 157 156 152 148 144 145 141 136 131 127 128 126 130 125 120 119 116 115 115 115 115 114 111 105 101 94 90 87 83 76 67 68 63 60 57 54 50 48 44 40 42 42 19
178 181 185 184 179 173 173 169 167 163 164 159 133 166 188 180 168 170 173 168 168 168 165 163 165 172 180 178 171 170 171 169 167 169 173 172 168 162 161 159 150 155 159 158 152 150 147 145 141 137 133 130 127 128 128 127 125 127 126 125 122 121 122 122 119 113 108 106 102 96 91 86 79 77 71 67 62 59 58 56 51 46 44 39 38
178 179 179 179 169 170 166 168 168 167 166 157 145 174 180 175 173 170 171 165 167 162 171 172 172 177 176 172 167 170 172 169 167 169 174 171 161 157 156 156 148 154 160 157 155 151 148 147 143 139 136 136 131 132 134 131 132 129 132 131 128 127 126 123 120 117 114 109 103 101 95 91 85 76 71 69 59 55 57 56 56 55 53 42 36
177 177 176 172 170 170 171 171 172 168 168 162 151 172 176 173 174 174 167 164 168 169 175 175 172 173 175 173 170 170 171 170 167 171 173 169 157 156 161 153 151 157 159 159 157 152 151 149 148 146 142 139 138 137 134 134 132 137 132 133 133 128 126 121 114 111 112 112 106 97 94 90 85 80 75 68 61 55 52 51 52 56 49 45 44
172 175 174 174 173 174 171 173 173 172 172 166 161 166 168 170 177 167 163 164 169 169 176 172 168 171 176 174 170 169 171 170 168 169 171 164 156 157 154 153 152 154 160 162 157 155 156 152 152 148 144 141 139 137 137 141 140 140 138 133 131 132 128 125 124 121 116 112 107 100 93 87 81 80 74 69 61 57 55 53 49 40 45 45 42
174 174 173 172 176 176 174 175 173 172 171 170 164 169 165 169 172 166 160 164 161 172 170 165 165 169 171 173 168 171 169 169 168 169 172 164 157 154 155 153 152 152 156 164 161 158 157 156 151 148 148 143 139 140 139 144 147 146 143 140 136 135 133 129 125 120 118 114 108 102 95 86 84 81 77 72 72 63 56 53 41 40 32 32 38
171 174 176 176 175 175 177 176 178 175 169 172 164 164 161 161 160 161 160 158 162 170 174 172 167 163 160 147 171 181 169 162 168 171 173 163 154 155 154 149 151 156 161 163 162 160 156 158 150 152 147 144 142 145 147 152 154 151 148 146 142 142 138 134 128 125 121 118 114 110 104 94 79 65 58 67 51 61 63 48 41 34 31 24 30
173 174 176 177 177 176 175 178 176 175 172 167 158 155 156 155 156 158 160 159 163 167 173 171 166 167 163 171 174 172 163 168 171 172 172 160 154 149 148 148 153 159 165 166 168 161 160 157 154 152 149 148 151 149 155 161 156 155 153 150 149 146 144 140 137 131 127 123 118 108 96 85 76 66 49 44 43 21 12 56 45 37 34 32 27
174 172 175 177 176 175 176 176 172 175 171 166 161 156 154 153 153 156 159 160 164 170 172 174 175 171 167 170 172 168 171 167 171 171 170 153 146 144 146 148 153 157 163 170 171 166 162 159 159 155 153 154 154 161 134 155 165 158 159 153 151 152 149 146 144 139 135 127 116 103 99 97 89 79 73 67 60 54 42 34 27 20 8 29 43
172 173 174 176 177 176 176 177 176 177 173 166 160 163 158 156 155 158 160 163 166 172 182 182 181 170 170 171 171 170 168 165 169 168 154 145 144 146 151 153 153 155 162 172 177 170 171 168 164 161 159 160 160 133 124 145 154 164 162 156 157 156 154 151 151 149 142 137 130 124 129 127 119 109 92 82 78 77 69 61 50 40 31 20 8
173 173 173 173 179 179 179 179 180 181 176 171 163 158 159 154 158 158 160 163 166 176 183 184 182 172 175 171 172 172 168 162 160 154 148 148 151 155 156 154 150 154 163 169 176 175 175 173 170 167 165 164 154 124 142 139 153 175 192 163 163 160 162 161 160 159 151 151 141 142 144 150 144 128 129 120 106 95 96 82 59 44 33 28 28
174 175 175 178 181 181 182 179 173 182 188 180 171 165 159 157 154 157 158 166 168 178 182 181 182 176 175 175 173 171 165 163 156 152 147 149 155 158 158 157 158 158 162 173 177 177 177 174 173 172 170 164 144 141 145 153 154 166 207 203 164 168 172 169 168 166 161 158 155 151 151 151 131 144 154 133 133 127 128 124 121 119 89 45 15
172 177 176 176 177 182 183 185 177 174 182 178 182 181 176 172 170 168 173 176 168 173 179 177 178 178 174 174 170 158 151 153 150 147 148 149 154 159 161 161 158 159 168 176 182 177 176 173 174 174 169 163 145 148 152 158 159 166 182 232 164 174 179 170 173 165 164 167 165 160 157 155 153 178 159 147 145 149 154 165 169 152 108 162 206
173 173 178 173 171 174 184 185 174 164 164 164 164 168 166 172 181 181 180 175 176 175 178 175 175 177 172 173 168 158 150 149 147 144 150 157 159 159 161 161 163 166 170 178 183 178 173 173 174 177 178 169 137 149 158 161 162 170 179 242 172 173 179 171 171 165 170 169 172 168 165 158 164 182 159 162 158 162 159 137 124 114 101 66 57
168 170 172 174 171 173 181 184 179 159 155 162 162 157 162 170 178 186 187 184 181 181 175 175 177 175 176 171 158 159 157 147 143 146 153 160 166 165 163 161 163 168 175 179 179 175 168 171 173 182 179 166 138 155 159 163 162 170 182 213 178 177 179 174 171 173 174 172 177 177 174 165 167 181 118 316 316 332 151 154 132 136 129 124 86
160 163 165 168 169 167 171 176 182 186 176 169 157 158 163 169 181 189 187 186 180 173 173 171 173 176 173 167 163 156 154 150 152 158 167 172 168 163 159 159 162 166 169 173 171 172 171 172 168 173 172 154 146 163 162 163 166 173 186 201 178 187 177 181 180 175 185 174 184 187 180 172 172 173 142 184 236 291 194 154 143 133 133 135 121
151 153 153 161 168 167 160 172 178 188 189 181 170 170 174 177 183 185 187 183 179 173 170 174 177 181 177 164 156 154 151 154 156 165 172 173 163 159 158 161 165 166 169 170 167 168 171 170 171 171 174 156 155 160 167 167 171 181 203 199 183 189 177 180 180 182 187 184 147 31 327 185 179 152 150 179 222 253 224 141 166 182 160 153 142
146 151 153 159 162 170 167 174 170 174 178 182 186 187 186 187 188 186 188 186 187 181 174 177 178 178 162 164 169 161 156 161 164 165 171 168 164 160 158 161 164 164 161 159 162 163 164 165 171 172 146 158 150 154 170 171 179 189 212 212 193 183 182 180 179 182 190 187 159 176 216 350 350 132 155 180 209 237 228 155 173 197 163 149 119
138 138 148 151 154 161 168 174 171 173 166 181 197 188 175 176 171 173 186 190 193 193 182 181 177 170 173 170 164 165 166 163 158 163 162 160 154 148 156 157 153 156 154 155 160 159 160 160 157 158 156 166 150 156 172 176 185 195 220 236 191 189 184 181 187 180 189 187 179 173 157 139 83 138 159 179 201 228 268 215 210 216 197 161 163
131 128 126 146 155 163 164 167 171 169 174 183 185 191 183 182 178 184 191 197 184 161 174 189 181 177 177 174 168 171 171 164 162 155 143 154 160 155 153 151 153 151 145 150 157 152 151 144 148 150 161 160 157 157 163 178 187 200 216 244 219 196 188 185 189 186 191 183 179 186 178 129 144 142 170 174 199 222 257 287 247 311 43 37 332
113 130 145 143 149 151 158 159 162 172 184 189 188 184 185 188 182 184 189 172 176 187 187 182 182 185 180 179 169 170 167 158 121 126 135 142 147 149 155 154 156 149 147 141 138 143 143 140 141 149 156 153 143 150 159 175 191 199 221 236 256 193 204 183 198 184 188 179 182 183 162 136 146 157 169 178 191 222 241 259 52 85 67 95 267
130 137 130 138 141 148 149 153 164 172 186 191 193 197 198 177 169 154 171 183 182 184 181 175 175 177 175 173 152 157 158 154 145 135 136 134 137 141 135 130 136 138 129 123 124 126 133 136 139 149 153 149 140 133 154 169 187 201 214 240 270 300 71 264 188 187 182 171 185 143 104 127 143 154 165 174 189 193 220 224 91 106 126 249 275
127 127 129 134 129 132 129 141 163 184 198 189 198 159 95 127 142 162 164 170 171 178 179 171 167 169 169 166 152 150 153 144 142 137 107 118 132 136 138 142 150 151 151 150 156 150 146 146 159 162 155 145 143 144 157 166 172 196 207 240 267 312 189 228 203 187 186 160 180 156 123 134 141 151 156 168 167 206 234 121 146 143 197 232 251
128 127 131 129 129 127 131 139 173 189 202 199 200 140 134 145 164 177 184 182 175 175 172 167 165 162 157 153 146 136 134 131 136 139 135 131 133 140 141 153 160 157 156 152 147 144 146 147 142 151 161 160 158 153 158 162 164 175 202 214 231 242 235 342 243 180 190 100 82 97 121 138 143 154 152 153 155 144 129 149 169 185 220 228 226
126 128 129 124 123 125 133 140 161 190 193 193 177 150 167 154 160 181 185 182 173 174 167 164 159 154 153 151 143 125 123 128 130 134 131 143 148 152 150 149 152 147 150 154 158 164 166 173 177 172 169 163 152 161 161 155 158 165 183 193 216 203 236 292 5 71 83 100 109 112 119 130 143 157 170 189 201 164 170 181 188 209 227 233 232
128 125 128 128 128 130 136 142 148 171 178 169 174 182 181 173 172 175 183 178 176 170 165 159 152 151 154 153 146 139 132 135 151 152 161 168 165 160 150 145 148 150 161 172 172 179 182 176 167 175 164 155 165 174 167 164 174 175 186 168 182 185 178 260 202 145 128 108 128 146 151 159 109 173 252 43 97 126 161 191 199 209 226 234 212
126 132 129 128 132 133 137 139 136 144 160 166 174 167 168 171 164 161 172 174 171 169 167 163 153 150 154 150 141 140 135 133 141 149 157 158 157 161 162 163 167 171 176 180 179 181 180 170 172 170 159 170 175 184 175 173 176 180 187 186 191 194 190 197 199 179 179 156 151 131 139 181 169 190 201 205 200 195 199 197 203 202 212 213 73
126 128 128 124 130 132 130 122 124 135 145 165 173 157 174 175 172 168 165 164 167 167 168 162 157 152 149 140 144 149 153 150 150 158 166 163 168 171 167 169 169 186 184 173 167 166 168 162 159 158 165 173 197 196 187 172 177 181 185 182 186 189 192 192 193 155 172 163 171 180 191 196 196 199 202 204 190 197 197 198 206 214 204 200 205
116 115 114 113 114 118 117 115 124 134 141 156 181 186 181 181 173 174 170 157 157 163 164 159 159 156 145 142 145 149 149 152 161 166 164 122 42 47 38 165 157 72 69 61 122 150 154 157 167 178 187 195 197 194 159 157 163 172 185 188 182 183 186 195 131 140 177 177 188 191 201 201 206 204 207 209 198 196 197 196 194 207 228 218 213
119 118 116 113 112 112 118 124 130 134 134 138 157 180 189 189 175 171 168 154 154 157 161 159 156 157 154 153 150 153 158 167 169 164 157 158 164 97 57 61 83 96 97 107 122 109 145 169 186 195 205 59 108 140 148 152 153 163 171 176 161 161 139 121 135 150 196 206 197 205 208 208 207 216 211 213 209 208 204 207 203 185 211 217 224